User: anonymous   Login
Location: Home
(40.5300°N, 105.0300°W)
Time: 05:26:26
(UTC-06:00)
Language:

STARLINK-2751 - Orbit

View from above orbital plane
View from above orbital plane
View from above satellite
View from above satellite

Ground track
Ground track

The orbit data is extracted from the following two-line orbital elements,

1 48685C 21044AZ  21261.16792809  .00059628  00000-0  42268-3 0  2613
2 48685  53.0459 216.2178 0004133   4.4952  99.3750 15.73196556    13
Epoch (UTC): 18 September 2021 04:01:48
Eccentricity: 0.0004133
inclination: 53.0459°
perigee height: 347 km
apogee height: 352 km
right ascension of ascending node: 216.2178°
argument of perigee: 4.4952°
revolutions per day: 15.73196556
mean anomaly at epoch: 99.3750°
orbit number at epoch: 1

The dashed part of the orbit path shows where the satellite is in the earth's shadow,  

DLR